Weather History for Phoenix, AZ

Change the Weather History Date:

Wednesday, November 27, 2013

  Actual Average Record
Temperature  
Mean Temperature 63 °F 59 °F  
Max Temperature 71 °F 70 °F 87 °F (2014)
Min Temperature 55 °F 48 °F 31 °F (1966)
Degree Days  
Heating Degree Days 2 6  
Month to date heating degree days 45 78  
Since 1 July heating degree days 46 84  
Cooling Degree Days 0 0  
Month to date cooling degree days 111 69  
Year to date cooling degree days 5023 4605  
Growing Degree Days 13 (Base 50)    
Moisture  
Dew Point 30 °F    
Average Humidity 34    
Maximum Humidity 47    
Minimum Humidity 20    
Precipitation  
Precipitation 0.00 in 0.03 in 1.29 in (1919)
Month to date precipitation 2.43 0.57  
Year to date precipitation 8.03 7.07  
Snow  
Snow 0.00 in - - ()
Month to date snowfall 0.0  
Year to date snowfall 0.0  
Since 1 July snowfall 0.0  
Snow Depth 0.00 in    
Sea Level Pressure  
Sea Level Pressure 30.03 in    
Wind  
Wind Speed 11 mph (East)    
Max Wind Speed 21 mph    
Max Gust Speed 23 mph    
Visibility 10 miles    
Events      
T = Trace of Precipitation, MM = Missing Value Source: NWS Daily Summary

Daily Weather History Graph

Daily Weather History Graph

Search for Another Location

Airport:

Trip Planner

Search our weather history database for the weather conditions in past years. The results will help you decide how hot, cold, wet, or windy it might be!

Date:

Astronomy

Nov. 27, 2013 Rise Set
Actual Time 7:10 AM MST 5:20 PM MST
Civil Twilight 6:43 AM MST 5:47 PM MST
Nautical Twilight 6:13 AM MST 6:18 PM MST
Astronomical Twilight 5:43 AM MST 6:48 PM MST
Moon 1:32 AM MST (11/27) 1:45 PM MST (11/27)
Length of Visible Light 11h 03m
Length of Day
10h 09m
Waning Crescent, 31% of the Moon is Illuminated
Nov 27
Waning Crescent
Dec 2
New
Dec 9
First Quarter
Dec 17
Full
Dec 25
Last Quarter

Hourly Weather History & Observations

Time (MST) Temp. Dew Point Humidity Pressure Visibility Wind Dir Wind Speed Gust Speed Precip Events Conditions
12:51 AM 57.0 °F 32.0 °F 39% 30.12 in 10.0 mi ENE 10.4 mph - N/A   Clear
1:51 AM 57.9 °F 30.9 °F 36% 30.10 in 10.0 mi ENE 11.5 mph - N/A   Clear
2:51 AM 57.0 °F 32.0 °F 39% 30.09 in 10.0 mi East 9.2 mph - N/A   Partly Cloudy
3:51 AM 55.0 °F 33.1 °F 43% 30.09 in 10.0 mi East 9.2 mph - N/A   Partly Cloudy
4:51 AM 57.0 °F 30.9 °F 37% 30.09 in 10.0 mi East 12.7 mph - N/A   Partly Cloudy
5:51 AM 57.0 °F 30.9 °F 37% 30.09 in 10.0 mi East 9.2 mph - N/A   Scattered Clouds
6:51 AM 57.0 °F 30.0 °F 36% 30.10 in 10.0 mi ENE 12.7 mph - N/A   Mostly Cloudy
7:51 AM 57.0 °F 30.0 °F 36% 30.10 in 10.0 mi East 12.7 mph - N/A   Mostly Cloudy
8:51 AM 59.0 °F 30.0 °F 33% 30.09 in 10.0 mi East 10.4 mph - N/A   Mostly Cloudy
9:51 AM 62.1 °F 28.0 °F 28% 30.09 in 10.0 mi East 17.3 mph - N/A   Mostly Cloudy
10:51 AM 64.0 °F 28.0 °F 26% 30.07 in 10.0 mi East 16.1 mph - N/A   Mostly Cloudy
11:51 AM 66.9 °F 28.0 °F 23% 30.04 in 10.0 mi ENE 13.8 mph - N/A   Mostly Cloudy
12:51 PM 66.9 °F 27.0 °F 22% 30.00 in 10.0 mi ENE 12.7 mph - N/A   Mostly Cloudy
1:51 PM 70.0 °F 28.0 °F 21% 29.97 in 10.0 mi ENE 9.2 mph - N/A   Mostly Cloudy
2:51 PM 69.1 °F 27.0 °F 21% 29.96 in 10.0 mi ENE 12.7 mph - N/A   Mostly Cloudy
3:51 PM 68.0 °F 28.0 °F 22% 29.96 in 10.0 mi East 12.7 mph - N/A   Mostly Cloudy
4:51 PM 66.0 °F 28.0 °F 24% 29.96 in 10.0 mi East 10.4 mph - N/A   Mostly Cloudy
5:51 PM 64.0 °F 28.9 °F 27% 29.96 in 10.0 mi East 10.4 mph - N/A   Mostly Cloudy
6:51 PM 62.1 °F 30.9 °F 31% 29.97 in 10.0 mi ENE 8.1 mph - N/A   Mostly Cloudy
7:51 PM 61.0 °F 30.9 °F 32% 29.98 in 10.0 mi East 5.8 mph - N/A   Mostly Cloudy
8:51 PM 57.9 °F 33.1 °F 39% 29.99 in 10.0 mi East 8.1 mph - N/A   Mostly Cloudy
9:51 PM 57.0 °F 35.1 °F 44% 29.99 in 10.0 mi East 5.8 mph - N/A   Scattered Clouds
10:51 PM 55.9 °F 34.0 °F 44% 30.00 in 10.0 mi ESE 5.8 mph - N/A   Scattered Clouds
11:51 PM 57.0 °F 30.9 °F 37% 30.00 in 10.0 mi East 5.8 mph - N/A   Scattered Clouds